Volver al catálogo

ONEWEB-0151

ActivoComunicacionesPO
NORAD 48066·PAYLOAD·🇬🇧 United Kingdom

Lanzado Mar 25, 2021 desde Vostochny Cosmodrome

Loading…

Próximos Pases (próximas 24 horas)

TLE

ActualizadoSource: CelesTrak SupGP

Época: Sep 14, 2026, 23:16 UTC

1 48066C 21025AA  26257.96958751  .00003562  00000+0  97654-2 0  2571
2 48066  87.8925 302.3602 0001878  93.1522 302.7603 13.13467036    13

Sigue ONEWEB-0151 en tiempo real con AllMySat

Download on the App Store